Location: Pinon Hills
(34.4429°N, 117.6403°W)
Time: 16:58:45
(UTC-07:00)

Amateur Radio Satellites - All Passes

Search period start: 21 October 2014 16:28
Search period end: 22 October 2014 16:28
Location: Pinon Hills, 34.4429°N, 117.6403°W

Satellite Date Start Highest point End Downlink Frequencies (MHz)
Time Altitude Azimuth
Saudisat 1A 21 Oct 16:46:59 16:50:16 20° 51° (NE) 16:53:31 436.775 MHz
AO-7 21 Oct 17:18:17 17:25:50 39° 260° (W) 17:33:25 29.400 - 29.500 MHz
OPAL 21 Oct 17:42:26 17:47:11 45° 102° (ESE) 17:51:54 ?
AO-40 21 Oct 17:46:01 23:49:15 50° 183° (S) 08:02:30 Beacon 2401.320
JAS-2 21 Oct 17:47:11 17:52:47 87° 256° (WSW) 17:59:11 435.800 - 435.900 CW/SSB, 435.910 FM
Uosat F 21 Oct 17:50:55 17:53:42 15° 267° (W) 17:56:30 435.120 FM
Hamsat 21 Oct 18:05:21 18:09:35 75° 259° (WSW) 18:13:48 145.90 MHz
Saudisat 1A 21 Oct 18:25:51 18:29:55 37° 246° (WSW) 18:33:58 436.775 MHz
SO-67 21 Oct 18:37:21 18:40:06 23° 73° (ENE) 18:42:53 435.3500 MHz FM
STRAND 1 21 Oct 19:21:01 19:26:02 50° 100° (E) 19:31:00 ?
OPAL 21 Oct 19:22:26 19:25:40 18° 296° (WNW) 19:28:54 ?
HO-68 21 Oct 19:54:24 20:00:11 28° 63° (ENE) 20:05:59 435.675 MHz FM
SO-67 21 Oct 20:11:08 20:13:03 14° 266° (W) 20:14:58 435.3500 MHz FM
RS-15 21 Oct 20:29:14 20:30:44 10° 97° (E) 20:32:14 29.354 - 29.394 USB, Beacon 29.352 USB
KITSAT 1 21 Oct 20:34:15 20:39:34 18° 43° (NE) 20:44:50 435.175 FM
ISS 21 Oct 20:38:36 20:41:42 35° 38° (NE) 20:44:48 145.800 FM
UKube-1 21 Oct 21:00:14 21:03:44 24° 70° (ENE) 21:07:15 145.840 MHz, 145.915 MHz
STRAND 1 21 Oct 21:01:32 21:04:46 17° 295° (WNW) 21:07:59 ?
FUNcube-1 21 Oct 21:34:02 21:37:31 22° 70° (ENE) 21:40:59 145.950 - 145.970 MHz USB
SO-50 21 Oct 21:39:32 21:42:10 14° 47° (NE) 21:44:49 436.795 FM
HO-68 21 Oct 21:40:35 21:47:28 51° 259° (W) 21:54:25 435.675 MHz FM
Oscar 11 21 Oct 21:43:55 21:48:14 69° 76° (ENE) 21:52:32 145.825 FM, Beacon 2401.500 USB
ISS 21 Oct 22:15:53 22:18:11 18° 232° (SW) 22:20:29 145.800 FM
ZACube-1 21 Oct 22:23:23 22:28:00 80° 76° (ENE) 22:32:35 437.345 MHz
KITSAT 1 21 Oct 22:28:02 22:36:10 83° 63° (ENE) 22:44:14 435.175 FM
RS-15 21 Oct 22:30:04 22:41:00 69° 114° (ESE) 22:51:47 29.354 - 29.394 USB, Beacon 29.352 USB
UKube-1 21 Oct 22:36:17 22:39:48 24° 263° (W) 22:43:20 145.840 MHz, 145.915 MHz
FUNcube-1 21 Oct 23:09:37 23:13:40 30° 263° (W) 23:17:43 145.950 - 145.970 MHz USB
SO-50 21 Oct 23:18:21 23:23:12 70° 243° (WSW) 23:28:03 436.795 FM
UOSAT-12 21 Oct 23:21:36 23:23:49 13° 46° (NE) 23:26:01 437.025 FM, 437.400 FM
MaSat-1 21 Oct 23:39:14 23:42:48 25° 107° (ESE) 23:46:11 437.345 MHz
KITSAT 1 22 Oct 00:25:56 00:30:32 17° 259° (WSW) 00:35:08 435.175 FM
RS-15 22 Oct 00:44:40 00:54:08 32° 315° (NW) 01:03:38 29.354 - 29.394 USB, Beacon 29.352 USB
UOSAT-12 22 Oct 00:59:47 01:04:29 73° 243° (WSW) 01:09:04 437.025 FM, 437.400 FM
MaSat-1 22 Oct 01:15:04 01:18:28 23° 298° (WNW) 01:21:39 437.345 MHz
Oscar 10/S400 22 Oct 01:24:42 02:32:31 24° 245° (WSW) 05:21:11 145.825 - 145.975 CW/USB, Beacon 145.810 USB
Oscar 19 22 Oct 01:34:11 01:38:18 24° 96° (E) 01:42:24 437.125 CW, 437.150 USB
JAS-1B 22 Oct 01:41:21 01:47:19 31° 99° (E) 01:54:11 435.800 - 435.900 CW/SSB
AO-27 22 Oct 01:46:04 01:47:48 12° 92° (E) 01:49:31 436.795 MHz FM
Oscar 16 22 Oct 02:18:36 02:23:44 74° 102° (ESE) 02:28:50 437.025 USB, Beacon 2401.1428
Uribyol 2 22 Oct 02:32:44 02:37:37 39° 99° (E) 02:42:26 436.500 FM
ITAMSAT 1 22 Oct 02:37:54 02:42:50 42° 99° (E) 02:47:44 435.822 SSB
AO-Echo 22 Oct 02:38:45 02:44:00 59° 101° (E) 02:49:14 ?
Gurwin Techsat 1B 22 Oct 02:40:03 02:44:08 22° 95° (E) 02:48:11 435.225 FM
TMSAT-1 22 Oct 02:53:23 02:57:25 22° 95° (E) 03:01:24 436.925 FM
RS-15 22 Oct 03:08:34 03:11:40 11° 349° (N) 03:14:47 29.354 - 29.394 USB, Beacon 29.352 USB
Oscar 19 22 Oct 03:13:06 03:17:37 32° 290° (WNW) 03:22:06 437.125 CW, 437.150 USB
AO-27 22 Oct 03:22:30 03:27:43 68° 286° (WNW) 03:32:52 436.795 MHz FM
JAS-1B 22 Oct 03:31:42 03:37:52 42° 289° (WNW) 03:45:07 435.800 - 435.900 CW/SSB
AO-7 22 Oct 03:33:24 03:37:35 15° 92° (E) 03:41:44 29.400 - 29.500 MHz
Sapphire 22 Oct 03:51:47 03:56:39 36° 109° (ESE) 04:01:33 437.095 MHz 1200 baud AX-25 AFSK
Oscar 16 22 Oct 04:00:48 04:02:24 11° 297° (WNW) 04:04:01 437.025 USB, Beacon 2401.1428
Uribyol 2 22 Oct 04:12:55 04:16:46 21° 293° (WNW) 04:20:36 436.500 FM
PCSat 22 Oct 04:14:07 04:19:27 65° 113° (ESE) 04:24:49 145.825 MHz
ITAMSAT 1 22 Oct 04:18:13 04:21:59 21° 294° (WNW) 04:25:44 435.822 SSB
AO-Echo 22 Oct 04:19:12 04:22:13 16° 295° (WNW) 04:25:14 ?
Gurwin Techsat 1B 22 Oct 04:19:16 04:24:09 38° 289° (WNW) 04:29:00 435.225 FM
Uosat F 22 Oct 04:21:58 04:25:45 21° 95° (E) 04:29:30 435.120 FM
TMSAT-1 22 Oct 04:32:30 04:37:23 39° 289° (WNW) 04:42:15 436.925 FM
OPAL 22 Oct 04:53:39 04:58:42 56° 72° (ENE) 05:03:43 ?
JAS-2 22 Oct 05:00:46 05:06:11 20° 91° (E) 05:11:34 435.800 - 435.900 CW/SSB, 435.910 FM
AO-7 22 Oct 05:22:50 05:31:12 89° 107° (ESE) 05:39:33 29.400 - 29.500 MHz
RS-15 22 Oct 05:24:27 05:31:09 17° 28° (NNE) 05:37:57 29.354 - 29.394 USB, Beacon 29.352 USB
Sapphire 22 Oct 05:35:32 05:40:05 27° 305° (NW) 05:44:39 437.095 MHz 1200 baud AX-25 AFSK
Hamsat 22 Oct 05:55:04 05:58:28 24° 96° (E) 06:01:53 145.90 MHz
PCSat 22 Oct 05:59:56 06:03:19 17° 310° (NW) 06:06:43 145.825 MHz
Uosat F 22 Oct 05:59:58 06:04:35 37° 289° (WNW) 06:09:10 435.120 FM
STRAND 1 22 Oct 06:33:25 06:38:20 50° 73° (ENE) 06:43:17 ?
OPAL 22 Oct 06:35:07 06:37:50 14° 265° (W) 06:40:33 ?
JAS-2 22 Oct 06:43:53 06:51:38 74° 286° (WNW) 06:59:24 435.800 - 435.900 CW/SSB, 435.910 FM
Saudisat 1A 22 Oct 06:53:07 06:53:42 10° 107° (ESE) 06:54:17 436.775 MHz
AO-7 22 Oct 07:17:46 07:22:52 18° 305° (NW) 07:27:59 29.400 - 29.500 MHz
Hamsat 22 Oct 07:31:02 07:34:17 22° 289° (WNW) 07:37:32 145.90 MHz
PANSAT 22 Oct 07:34:27 07:36:00 12° 158° (SSE) 07:37:32 not established
RS-15 22 Oct 07:35:34 07:46:36 58° 56° (NE) 07:58:03 29.354 - 29.394 USB, Beacon 29.352 USB
SO-67 22 Oct 07:36:11 07:39:31 44° 99° (E) 07:42:49 435.3500 MHz FM
STRAND 1 22 Oct 08:14:43 08:17:44 16° 267° (W) 08:20:47 ?
Saudisat 1A 22 Oct 08:28:22 08:32:42 61° 301° (WNW) 08:37:03 436.775 MHz
JAS-2 22 Oct 08:32:02 08:35:24 13° 302° (WNW) 08:38:47 435.800 - 435.900 CW/SSB, 435.910 FM
HO-68 22 Oct 09:12:12 09:18:50 39° 99° (E) 09:25:24 435.675 MHz FM
PANSAT 22 Oct 09:12:20 09:15:36 27° 170° (S) 09:18:52 not established
MaSat-1 22 Oct 09:30:27 09:31:12 11° 57° (ENE) 09:31:56 437.345 MHz
Oscar 11 22 Oct 09:36:22 09:39:04 16° 94° (E) 09:41:46 145.825 FM, Beacon 2401.500 USB
RS-15 22 Oct 09:48:36 09:58:26 37° 254° (WSW) 10:08:42 29.354 - 29.394 USB, Beacon 29.352 USB
ZACube-1 22 Oct 10:17:28 10:20:31 19° 94° (E) 10:23:31 437.345 MHz
UKube-1 22 Oct 10:26:58 10:31:21 75° 102° (ESE) 10:35:42 145.840 MHz, 145.915 MHz
PANSAT 22 Oct 10:51:55 10:55:23 32° 183° (S) 10:58:50 not established
HO-68 22 Oct 11:00:00 11:06:21 35° 294° (WNW) 11:12:42 435.675 MHz FM
KITSAT 1 22 Oct 11:01:00 11:05:24 16° 101° (E) 11:09:48 435.175 FM
FUNcube-1 22 Oct 11:01:56 11:06:11 69° 101° (E) 11:10:19 145.950 - 145.970 MHz USB
MaSat-1 22 Oct 11:05:35 11:06:46 13° 255° (WSW) 11:07:55 437.345 MHz
Oscar 11 22 Oct 11:11:25 11:15:18 34° 288° (WNW) 11:19:11 145.825 FM, Beacon 2401.500 USB
Oscar 10/S400 22 Oct 11:34:17 11:58:44 30° 153° (SSE) 12:14:14 145.825 - 145.975 CW/USB, Beacon 145.810 USB
ZACube-1 22 Oct 11:53:16 11:56:54 28° 289° (WNW) 12:00:27 437.345 MHz
JAS-1B 22 Oct 12:26:57 12:30:07 15° 64° (ENE) 12:33:11 435.800 - 435.900 CW/SSB
PANSAT 22 Oct 12:32:13 12:35:06 20° 195° (SSW) 12:38:00 not established
Sapphire 22 Oct 12:44:16 12:47:26 16° 50° (NE) 12:50:36 437.095 MHz 1200 baud AX-25 AFSK
Oscar 19 22 Oct 12:47:46 12:51:57 26° 69° (ENE) 12:56:08 437.125 CW, 437.150 USB
KITSAT 1 22 Oct 12:51:39 12:59:44 86° 297° (WNW) 13:07:52 435.175 FM
AO-27 22 Oct 13:00:46 13:03:17 14° 63° (ENE) 13:05:49 436.795 MHz FM
PCSat 22 Oct 13:06:12 13:10:39 25° 55° (NE) 13:15:05 145.825 MHz
ISS 22 Oct 13:17:52 13:21:11 85° 136° (SE) 13:24:32 145.800 FM
SO-50 22 Oct 13:29:45 13:34:12 89° 299° (WNW) 13:38:48 436.795 FM
Oscar 16 22 Oct 13:31:54 13:37:03 74° 75° (ENE) 13:42:13 437.025 USB, Beacon 2401.1428
Uribyol 2 22 Oct 13:47:04 13:51:57 42° 71° (ENE) 13:56:51 436.500 FM
AO-Echo 22 Oct 13:48:19 13:52:57 50° 73° (ENE) 13:57:45 ?
ITAMSAT 1 22 Oct 13:52:23 13:57:18 44° 72° (ENE) 14:02:14 435.822 SSB
Gurwin Techsat 1B 22 Oct 13:57:48 14:02:04 25° 68° (ENE) 14:06:20 435.225 FM
TMSAT-1 22 Oct 14:10:48 14:15:00 25° 68° (ENE) 14:19:13 436.925 FM
JAS-1B 22 Oct 14:14:07 14:20:21 62° 258° (WSW) 14:26:01 435.800 - 435.900 CW/SSB
Sapphire 22 Oct 14:25:58 14:31:23 71° 247° (WSW) 14:36:45 437.095 MHz 1200 baud AX-25 AFSK
Oscar 19 22 Oct 14:26:32 14:31:06 32° 263° (W) 14:35:41 437.125 CW, 437.150 USB
AO-7 22 Oct 14:29:20 14:34:10 17° 55° (NE) 14:39:00 29.400 - 29.500 MHz
AO-27 22 Oct 14:37:03 14:42:12 64° 258° (WSW) 14:47:23 436.795 MHz FM
PCSat 22 Oct 14:49:08 14:54:08 39° 250° (WSW) 14:59:07 145.825 MHz
KITSAT 1 22 Oct 14:50:52 14:56:17 19° 317° (NW) 15:01:44 435.175 FM
ISS 22 Oct 14:56:44 14:58:17 13° 333° (NNW) 14:59:50 145.800 FM
UOSAT-12 22 Oct 15:07:11 15:11:47 80° 118° (ESE) 15:16:29 437.025 FM, 437.400 FM
SO-50 22 Oct 15:14:50 15:15:27 10° 316° (NW) 15:16:03 436.795 FM
Oscar 16 22 Oct 15:16:39 15:16:51 10° 269° (W) 15:17:03 437.025 USB, Beacon 2401.1428
Uribyol 2 22 Oct 15:27:51 15:31:32 19° 266° (W) 15:35:15 436.500 FM
AO-Echo 22 Oct 15:29:29 15:32:01 14° 268° (W) 15:34:36 ?
Uosat F 22 Oct 15:32:09 15:35:49 21° 67° (ENE) 15:39:30 435.120 FM
ITAMSAT 1 22 Oct 15:33:25 15:36:56 18° 266° (W) 15:40:29 435.822 SSB
Gurwin Techsat 1B 22 Oct 15:37:03 15:41:49 34° 262° (W) 15:46:37 435.225 FM
TMSAT-1 22 Oct 15:49:54 15:54:41 35° 262° (W) 15:59:31 436.925 FM
